Jackson, KY

1:58 AM EDT on October 01, 2016 (GMT -0400)
Carroll

Weather History for KJKL - July, 2013

Change the Weather History Date:

Tuesday, July 30, 2013

  Actual Average Record
Temperature  
Mean Temperature 67 °F 75 °F  
Max Temperature 75 °F 84 °F 97 °F (1999)
Min Temperature 59 °F 66 °F 52 °F (2014)
Degree Days  
Heating Degree Days 0 0  
Month to date heating degree days 0 0  
Since 1 June heating degree days 0 12  
Since 1 July heating degree days 0 0  
Cooling Degree Days 2 10  
Month to date cooling degree days 270 306  
Year to date cooling degree days 642 665  
Since 1 June cooling degree days 494 529  
Growing Degree Days 16 (Base 50)    
Moisture  
Dew Point 59 °F    
Average Humidity 74    
Maximum Humidity 90    
Minimum Humidity 57    
Precipitation  
Precipitation T in 0.15 in 2.77 in (1985)
Month to date precipitation 6.57 4.50  
Year to date precipitation 33.13 29.71  
Snow  
Snow 0.00 in 0.00 in - ()
Month to date snowfall 0.0 0.0  
Since 1 June snowfall 0.0 0.0  
Since 1 July snowfall 0.0 0.0  
Snow Depth 0.00 in    
Sea Level Pressure  
Sea Level Pressure 30.20 in    
Wind  
Wind Speed 0 mph (SSE)    
Max Wind Speed 3 mph    
Max Gust Speed 6 mph    
Visibility 10 miles    
Events Rain    
T = Trace of Precipitation, MM = Missing Value Source: NWS Daily Summary

Daily Weather History Graph

Daily Weather History Graph

Search for Another Location

Airport or City:

Trip Planner

Search our weather history database for the weather conditions in past years. The results will help you decide how hot, cold, wet, or windy it might be!

Date:

Astronomy

Jul. 30, 2013 Rise Set
Actual Time 6:35 AM EDT 8:43 PM EDT
Civil Twilight 6:06 AM EDT 9:12 PM EDT
Nautical Twilight 5:30 AM EDT 9:47 PM EDT
Astronomical Twilight 4:52 AM EDT 10:26 PM EDT
Moon 12:51 AM EDT (7/30) 3:02 PM EDT (7/30)
Length of Visible Light 15h 05m
Length of Day
14h 07m
Last Quarter, 41% of the Moon is Illuminated
Jul 30
Last Quarter
Aug 6
New
Aug 14
First Quarter
Aug 20
Full
Aug 28
Last Quarter

Hourly Weather History & Observations

Time (EDT) Temp. Dew Point Humidity Pressure Visibility Wind Dir Wind Speed Gust Speed Precip Events Conditions
12:53 AM 64.0 °F 57.0 °F 78% 30.21 in 10.0 mi Calm Calm - N/A   Clear
1:53 AM 63.0 °F 57.0 °F 81% 30.20 in 10.0 mi Calm Calm - N/A   Clear
2:53 AM 64.0 °F 55.9 °F 75% 30.19 in 10.0 mi Calm Calm - N/A   Clear
3:53 AM 62.1 °F 57.0 °F 84% 30.20 in 10.0 mi Calm Calm - N/A   Clear
4:53 AM 61.0 °F 57.0 °F 87% 30.20 in 10.0 mi Calm Calm - N/A   Clear
5:53 AM 60.1 °F 57.0 °F 90% 30.21 in 10.0 mi Calm Calm - N/A   Clear
6:53 AM 61.0 °F 55.9 °F 83% 30.22 in 10.0 mi Calm Calm - N/A   Clear
7:53 AM 61.0 °F 57.0 °F 87% 30.24 in 10.0 mi Calm Calm - N/A   Clear
8:53 AM 64.9 °F 57.9 °F 78% 30.24 in 10.0 mi Calm Calm - N/A   Clear
9:53 AM 68.0 °F 59.0 °F 73% 30.24 in 10.0 mi Calm Calm - N/A   Clear
10:53 AM 71.1 °F 61.0 °F 70% 30.22 in 10.0 mi Calm Calm - N/A   Clear
11:53 AM 73.0 °F 60.1 °F 64% 30.22 in 10.0 mi Calm Calm - N/A   Clear
12:53 PM 73.9 °F 57.9 °F 57% 30.22 in 10.0 mi Calm Calm - N/A   Clear
1:53 PM 73.9 °F 59.0 °F 59% 30.21 in 10.0 mi Calm Calm - N/A   Clear
2:53 PM 73.9 °F 60.1 °F 62% 30.19 in 10.0 mi Calm Calm - N/A   Clear
3:53 PM 73.9 °F 63.0 °F 68% 30.20 in 10.0 mi Calm Calm - N/A   Partly Cloudy
4:53 PM 73.9 °F 63.0 °F 68% 30.18 in 10.0 mi Calm Calm - N/A   Clear
5:53 PM 73.9 °F 61.0 °F 64% 30.17 in 10.0 mi Calm Calm - N/A   Clear
6:53 PM 72.0 °F 62.1 °F 71% 30.17 in 10.0 mi Calm Calm - N/A   Clear
7:53 PM 71.1 °F 62.1 °F 73% 30.17 in 10.0 mi Calm Calm - N/A   Clear
8:53 PM 70.0 °F 60.1 °F 71% 30.16 in 10.0 mi Calm Calm - N/A   Clear
9:53 PM 70.0 °F 60.1 °F 71% 30.15 in 10.0 mi Calm Calm - N/A   Clear
10:53 PM 68.0 °F 63.0 °F 84% 30.16 in 10.0 mi SSE 3.5 mph - N/A   Mostly Cloudy
11:53 PM 66.9 °F 64.0 °F 90% 30.17 in 10.0 mi Calm Calm - 0.00 in Rain Light Rain